Location: Bishopstone
(51.0167°N, 1.9000°W)
Time: 22:55:23
(UTC+00:00)

Cosmos 2360 Rocket - Pass Details

Date: 16 September 2019
Orbit: 833 x 846 km, 71.0° (Epoch: 17 October)

Event Time Altitude Azimuth Distance (km) Brightness Sun altitude
Rises 19:15:53 0° 325° (NW) 3,403 6.2 -9.4°
Reaches altitude 10° 19:18:29 10° 317° (NW) 2,466 5.6 -9.8°
Maximum altitude 19:23:36 36° 253° (WSW) 1,305 3.8 -10.6°
Drops below altitude 10° 19:28:42 10° 188° (S) 2,458 4.5 -11.3°
Sets 19:31:18 0° 180° (S) 3,390 5.1 -11.7°
